SUPERBIRD 8

Last updated on Jan. 29, 2020, 4:37 a.m. UTC

1 43271U 18033A   20028.74708674 -.00000094  00000-0  00000-0 0  9991
2 43271   0.0133 124.5097 0000945 166.0760 267.8169  1.00271411  6684
UTC
Height (km)
Latitude
Longitude
Inclination
Orbital Period
UTC large
Height (km)
Speed (km/s)
/
Latitude / Longitude
Inclination (degrees)
Orbital Period (minutes)
Azimuth
Elevation
Range (km)
Doppler Factor
iOS Compass Heading
iOS Angle

Next 30 passes for location: Hong Kong

Rise time Rise Azimuth (degrees) Set time Set Azimuth (degrees) Duration Max altitude (degrees)

No matching passes for this satellites